Regional Weather Roundup
Issued by NWS

Home | Current Version | Previous Version | Graphics & Text | Print | Product List | Glossary Off
Versions: 1 2 3 4 5 6 7 8 9 10 11 12 13 14 15 16 17 18 19 20 21 22 23 24 25 26 27 28 29 30 31 32 33 34 35 36 37 38 39 40 41 42 43 44 45 46 47 48 49 50

000
ASUS43 KLSX 251559
RWRMO

WEATHER SUMMARY FOR MISSOURI
NATIONAL WEATHER SERVICE SPRINGFIELD MO
1100 AM CDT FRI JUL 25 2014

NOTE: "FAIR" INDICATES FEW OR NO CLOUDS BELOW 12,000 FEET WITH NO
       SIGNIFICANT WEATHER AND/OR OBSTRUCTIONS TO VISIBILITY.
       CURRENT SKY AND/OR WEATHER CONDITIONS ARE NOT AVAILABLE FOR
       CHILLICOTHE AND FARMINGTON.

MOZ001>031-035>038-043-044-053-054-251700-
...NORTHERN AND WESTERN MISSOURI...

CITY           SKY/WX    TMP DP  RH WIND       PRES   REMARKS
KANSAS CTY INT PTSUNNY   83  73  72 S16       29.85S
KANSAS C DTWN  MOSUNNY   86  71  60 S14G25    29.84F HX  91
LEE`S SUMMIT   MOSUNNY   82  71  69 SW16G26   29.88S
ST JOSEPH      MOSUNNY   84  73  69 SW12G22   29.83R HX  90
CHILLICOTHE      N/A     77  65  66 E7        29.92S
KIRKSVILLE     CLOUDY    66  61  84 SE18      29.96F

$$
MOZ066>068-077>081-088>096-101>105-251700-
...SOUTHWEST MISSOURI...

CITY           SKY/WX    TMP DP  RH WIND       PRES   REMARKS
SPRINGFIELD    PTSUNNY   79  70  74 S16       30.01F
JOPLIN         MOSUNNY   84  70  62 SW18      29.98F

$$
MOZ032>034-039>042-045>050-055>058-069>072-251700-
...CENTRAL MISSOURI...

CITY           SKY/WX    TMP DP  RH WIND       PRES   REMARKS
COLUMBIA       MOSUNNY   78  63  59 SE16      29.97F
JEFFERSON CITY CLOUDY    78  62  57 SE13      29.98F
ROLLA          MOSUNNY   80  60  50 S13G23    30.00F
SEDALIA        PTSUNNY   81  69  67 S14G24    29.93F
OSAGE BEACH    SUNNY     81  66  61 S10G16    29.98F

$$
MOZ051-052-059>065-251700-
...EAST CENTRAL MISSOURI...

CITY           SKY/WX    TMP DP  RH WIND       PRES   REMARKS
ST LOUIS INTL  CLOUDY    75  58  55 SE9       30.05F
SPIRIT OF STL  CLOUDY    73  59  61 SE6       30.03F
ST CHARLES     CLOUDY    70  64  81 E7        30.03F

$$
MOZ072>076-082>087-097>100-106>115-251700-
...SOUTH CENTRAL AND SOUTHEAST MISSOURI...

CITY           SKY/WX    TMP DP  RH WIND       PRES   REMARKS
CAPE GIRARDEAU SUNNY     79  62  56 S8        30.07F
FARMINGTON     MOSUNNY   75  61  60 S10       30.08F
POPLAR BLUFF   SUNNY     78  58  49 SW6       30.07R
WEST PLAINS    MOSUNNY   76  58  53 S8        30.08S

$$



USA.gov is the U.S. government's official web portal to all federal, state and local government web resources and services.